| time (UTC) | temp F | wind direction | speed MPH | gust MPH | rain 1hr in | rain 24hr in | rain mn in | humidity % | barometer mb |
| 20260506191256 | 61 | 68 | 1.0 | 3.0 | 0.00 | 0.00 | 0.00 | 53 | 1012.6 |
| 20260506190253 | 62 | 152 | 2.0 | 4.0 | 0.00 | 0.00 | 0.00 | 51 | 1012.7 |
| 20260506185312 | 62 | 143 | 2.0 | 4.0 | 0.00 | 0.00 | 0.00 | 51 | 1012.6 |
| 20260506184250 | 63 | 149 | 2.0 | 4.0 | 0.00 | 0.00 | 0.00 | 49 | 1012.6 |
| 20260506183248 | 63 | 146 | 2.0 | 4.0 | 0.00 | 0.00 | 0.00 | 49 | 1012.6 |
| 20260506182245 | 63 | 120 | 1.0 | 3.0 | 0.00 | 0.00 | 0.00 | 46 | 1012.6 |
| 20260506181243 | 64 | 111 | 1.0 | 3.0 | 0.00 | 0.00 | 0.00 | 46 | 1012.6 |
| 20260506180242 | 64 | 154 | 2.0 | 3.0 | 0.00 | 0.00 | 0.00 | 46 | 1012.6 |
| 20260506175240 | 64 | 106 | 1.0 | 4.0 | 0.00 | 0.00 | 0.00 | 44 | 1012.6 |
| 20260506174238 | 64 | 146 | 1.0 | 4.0 | 0.00 | 0.00 | 0.00 | 45 | 1012.8 |
| 20260506173235 | 64 | 150 | 2.0 | 3.0 | 0.00 | 0.00 | 0.00 | 45 | 1012.7 |
| 20260506172234 | 65 | 180 | 2.0 | 4.0 | 0.00 | 0.00 | 0.00 | 45 | 1012.7 |
| 20260506171232 | 65 | 159 | 1.0 | 4.0 | 0.00 | 0.00 | 0.00 | 45 | 1012.8 |
| 20260506170229 | 65 | 184 | 2.0 | 4.0 | 0.00 | 0.00 | 0.00 | 47 | 1012.8 |
| 20260506165228 | 65 | 178 | 2.0 | 4.0 | 0.00 | 0.00 | 0.00 | 47 | 1012.8 |
| 20260506164306 | 64 | 187 | 2.0 | 3.0 | 0.00 | 0.00 | 0.00 | 47 | 1012.9 |
| 20260506163223 | 64 | 198 | 2.0 | 3.0 | 0.00 | 0.00 | 0.00 | 47 | 1013.0 |
| 20260506162221 | 64 | 234 | 2.0 | 5.0 | 0.00 | 0.00 | 0.00 | 46 | 1013.2 |
| 20260506161220 | 64 | 280 | 2.0 | 5.0 | 0.00 | 0.00 | 0.00 | 48 | 1013.2 |
| 20260506160218 | 63 | 334 | 3.0 | 4.0 | 0.00 | 0.00 | 0.00 | 48 | 1013.3 |
| 20260506155215 | 63 | 348 | 3.0 | 5.0 | 0.00 | 0.00 | 0.00 | 48 | 1013.3 |
| 20260506154234 | 63 | 351 | 3.0 | 4.0 | 0.00 | 0.00 | 0.00 | 48 | 1013.4 |
| 20260506153212 | 63 | 351 | 3.0 | 4.0 | 0.00 | 0.00 | 0.00 | 47 | 1013.4 |
| 20260506152209 | 63 | 347 | 3.0 | 5.0 | 0.00 | 0.00 | 0.00 | 48 | 1013.5 |
| 20260506151228 | 63 | 358 | 4.0 | 5.0 | 0.00 | 0.00 | 0.00 | 47 | 1013.6 |
| 20260506150225 | 64 | 352 | 3.0 | 5.0 | 0.00 | 0.00 | 0.00 | 47 | 1013.9 |
| 20260506145204 | 64 | 341 | 3.0 | 5.0 | 0.00 | 0.00 | 0.00 | 47 | 1013.9 |
| 20260506144203 | 63 | 343 | 3.0 | 5.0 | 0.00 | 0.00 | 0.00 | 49 | 1014.1 |
| 20260506143221 | 63 | 351 | 3.0 | 5.0 | 0.00 | 0.00 | 0.00 | 48 | 1014.1 |
| 20260506142157 | 63 | 354 | 3.0 | 4.0 | 0.00 | 0.00 | 0.00 | 49 | 1014.2 |
| 20260506141155 | 63 | 356 | 3.0 | 6.0 | 0.00 | 0.00 | 0.00 | 49 | 1014.3 |
| 20260506140155 | 63 | 354 | 3.0 | 5.0 | 0.00 | 0.00 | 0.00 | 49 | 1014.3 |
| 20260506135152 | 62 | 358 | 4.0 | 5.0 | 0.00 | 0.00 | 0.00 | 50 | 1014.6 |
| 20260506134150 | 62 | 339 | 3.0 | 5.0 | 0.00 | 0.00 | 0.00 | 50 | 1014.6 |
| 20260506133148 | 62 | 333 | 2.0 | 4.0 | 0.00 | 0.00 | 0.00 | 50 | 1014.6 |
| 20260506132146 | 61 | 344 | 3.0 | 4.0 | 0.00 | 0.00 | 0.00 | 52 | 1014.7 |
| 20260506131144 | 61 | 315 | 2.0 | 5.0 | 0.00 | 0.00 | 0.00 | 53 | 1014.7 |
| 20260506130202 | 60 | 333 | 3.0 | 5.0 | 0.00 | 0.00 | 0.00 | 53 | 1015.0 |
| 20260506125140 | 59 | 318 | 3.0 | 5.0 | 0.00 | 0.00 | 0.00 | 54 | 1014.8 |
| 20260506124158 | 59 | 357 | 3.0 | 4.0 | 0.00 | 0.00 | 0.00 | 54 | 1015.0 |
| 20260506123144 | 59 | 344 | 3.0 | 5.0 | 0.00 | 0.00 | 0.00 | 54 | 1015.0 |
| 20260506122134 | 58 | 348 | 3.0 | 5.0 | 0.00 | 0.00 | 0.00 | 56 | 1015.4 |
| 20260506121132 | 58 | 348 | 3.0 | 4.0 | 0.00 | 0.00 | 0.00 | 56 | 1015.4 |
| 20260506120129 | 58 | 358 | 3.0 | 5.0 | 0.00 | 0.00 | 0.00 | 56 | 1015.5 |
| 20260506115128 | 58 | 353 | 3.0 | 5.0 | 0.00 | 0.00 | 0.00 | 58 | 1015.5 |
| 20260506114125 | 57 | 315 | 2.0 | 4.0 | 0.00 | 0.00 | 0.00 | 58 | 1015.7 |
| 20260506113124 | 57 | 348 | 3.0 | 4.0 | 0.00 | 0.00 | 0.00 | 59 | 1015.8 |
| 20260506112121 | 57 | 262 | 2.0 | 6.0 | 0.00 | 0.00 | 0.00 | 60 | 1015.8 |
| 20260506111120 | 56 | 318 | 3.0 | 5.0 | 0.00 | 0.00 | 0.00 | 61 | 1015.9 |
| 20260506110118 | 55 | 340 | 2.0 | 4.0 | 0.00 | 0.00 | 0.00 | 61 | 1015.9 |
| 20260506105115 | 55 | 355 | 3.0 | 4.0 | 0.00 | 0.00 | 0.00 | 61 | 1015.9 |
| 20260506104114 | 55 | 352 | 2.0 | 4.0 | 0.00 | 0.00 | 0.00 | 62 | 1016.0 |
| 20260506103112 | 54 | 355 | 2.0 | 4.0 | 0.00 | 0.00 | 0.00 | 63 | 1016.0 |
| 20260506102129 | 54 | 352 | 2.0 | 4.0 | 0.00 | 0.00 | 0.00 | 64 | 1016.1 |
| 20260506101149 | 53 | 355 | 2.0 | 4.0 | 0.00 | 0.00 | 0.00 | 64 | 1016.1 |
| 20260506100106 | 53 | 1 | 3.0 | 4.0 | 0.00 | 0.00 | 0.00 | 65 | 1016.0 |
| 20260506095103 | 53 | 1 | 3.0 | 6.0 | 0.00 | 0.00 | 0.00 | 64 | 1016.1 |
| 20260506094121 | 52 | 1 | 3.0 | 5.0 | 0.00 | 0.00 | 0.00 | 69 | 1016.1 |
| 20260506093059 | 51 | 1 | 2.0 | 4.0 | 0.00 | 0.00 | 0.00 | 71 | 1016.2 |
| 20260506092058 | 51 | 6 | 2.0 | 6.0 | 0.00 | 0.00 | 0.00 | 71 | 1016.0 |
| 20260506091116 | 50 | 1 | 2.0 | 4.0 | 0.00 | 0.00 | 0.00 | 74 | 1016.2 |
| 20260506090053 | 49 | 347 | 2.0 | 4.0 | 0.00 | 0.00 | 0.00 | 75 | 1016.1 |
| 20260506085053 | 49 | 358 | 2.0 | 4.0 | 0.00 | 0.00 | 0.00 | 76 | 1016.1 |
| 20260506084110 | 48 | 3 | 2.0 | 4.0 | 0.00 | 0.00 | 0.00 | 77 | 1016.1 |
| 20260506083047 | 47 | 3 | 2.0 | 4.0 | 0.00 | 0.00 | 0.00 | 77 | 1016.2 |
| 20260506082045 | 47 | 1 | 2.0 | 4.0 | 0.00 | 0.00 | 0.00 | 77 | 1016.2 |
| 20260506081043 | 46 | 5 | 2.0 | 4.0 | 0.00 | 0.00 | 0.00 | 78 | 1016.3 |
| 20260506073036 | 44 | 221 | 2.0 | 3.0 | 0.00 | 0.00 | 0.00 | 80 | 1016.4 |
| 20260506072054 | 44 | 351 | 2.0 | 3.0 | 0.00 | 0.00 | 0.00 | 80 | 1016.4 |
| 20260506071032 | 43 | 341 | 2.0 | 3.0 | 0.00 | 0.00 | 0.00 | 80 | 1016.3 |
| 20260506062021 | 42 | 239 | 2.0 | 2.0 | 0.00 | 0.00 | 0.00 | 80 | 1016.0 |
| 20260506061020 | 42 | 225 | 1.0 | 2.0 | 0.00 | 0.00 | 0.00 | 80 | 1015.9 |
| 20260506051008 | 42 | 211 | 2.0 | 2.0 | 0.00 | 0.00 | 0.00 | 80 | 1015.5 |
| 20260506045004 | 41 | 201 | 1.0 | 2.0 | 0.00 | 0.00 | 0.00 | 79 | 1015.6 |
| 20260506044002 | 42 | 200 | 1.0 | 2.0 | 0.00 | 0.00 | 0.00 | 79 | 1015.5 |
| 20260506042959 | 42 | 204 | 1.0 | 2.0 | 0.00 | 0.00 | 0.00 | 79 | 1015.6 |
| 20260506041957 | 42 | 270 | 1.0 | 2.0 | 0.00 | 0.00 | 0.00 | 79 | 1015.6 |
| 20260506040956 | 42 | 288 | 1.0 | 2.0 | 0.00 | 0.00 | 0.00 | 79 | 1015.7 |
| 20260506035953 | 42 | 343 | 2.0 | 2.0 | 0.00 | 0.00 | 0.00 | 78 | 1015.8 |
| 20260506034952 | 42 | 332 | 1.0 | 2.0 | 0.00 | 0.00 | 0.00 | 78 | 1015.7 |
| 20260506033949 | 42 | 334 | 1.0 | 2.0 | 0.00 | 0.00 | 0.00 | 78 | 1015.7 |
| 20260506032948 | 43 | 326 | 1.0 | 2.0 | 0.00 | 0.00 | 0.00 | 78 | 1015.7 |
| 20260506031946 | 43 | 341 | 1.0 | 2.0 | 0.00 | 0.00 | 0.00 | 78 | 1015.7 |
| 20260506030943 | 43 | 345 | 2.0 | 3.0 | 0.00 | 0.00 | 0.00 | 78 | 1015.9 |
| 20260506030023 | 43 | 334 | 1.0 | 2.0 | 0.00 | 0.00 | 0.00 | 78 | 1015.7 |
| 20260506025000 | 43 | 340 | 2.0 | 2.0 | 0.00 | 0.00 | 0.00 | 78 | 1015.7 |
| 20260506023958 | 44 | 342 | 2.0 | 2.0 | 0.00 | 0.00 | 0.00 | 77 | 1015.7 |
| 20260506022935 | 44 | 342 | 1.0 | 2.0 | 0.00 | 0.00 | 0.00 | 77 | 1015.7 |
| 20260506021934 | 44 | 333 | 1.0 | 2.0 | 0.00 | 0.00 | 0.00 | 78 | 1015.7 |
| 20260506020931 | 44 | 342 | 1.0 | 2.0 | 0.00 | 0.00 | 0.00 | 77 | 1015.7 |
| 20260506015930 | 44 | 343 | 1.0 | 2.0 | 0.00 | 0.00 | 0.00 | 77 | 1015.7 |
| 20260506014928 | 45 | 352 | 1.0 | 2.0 | 0.00 | 0.00 | 0.00 | 77 | 1015.8 |
| 20260506013925 | 45 | 345 | 1.0 | 2.0 | 0.00 | 0.00 | 0.00 | 77 | 1015.9 |
| 20260506012924 | 45 | 341 | 1.0 | 2.0 | 0.00 | 0.00 | 0.00 | 77 | 1015.8 |
| 20260506011921 | 45 | 341 | 1.0 | 2.0 | 0.00 | 0.00 | 0.00 | 77 | 1016.0 |
| 20260506010919 | 45 | 344 | 1.0 | 2.0 | 0.00 | 0.00 | 0.00 | 77 | 1015.9 |
| 20260506005918 | 45 | 350 | 2.0 | 2.0 | 0.00 | 0.00 | 0.00 | 77 | 1016.2 |
| 20260506004915 | 46 | 348 | 2.0 | 2.0 | 0.00 | 0.00 | 0.00 | 77 | 1016.1 |
| 20260506003914 | 46 | 352 | 2.0 | 2.0 | 0.00 | 0.00 | 0.00 | 77 | 1016.2 |
| 20260506002912 | 46 | 351 | 1.0 | 2.0 | 0.00 | 0.00 | 0.00 | 77 | 1016.2 |
| 20260506001909 | 46 | 350 | 1.0 | 2.0 | 0.00 | 0.00 | 0.00 | 77 | 1016.2 |
| 20260506000908 | 46 | 350 | 2.0 | 2.0 | 0.00 | 0.00 | 0.00 | 77 | 1016.0 |
| 20260505235905 | 46 | 355 | 1.0 | 2.0 | 0.00 | 0.00 | 0.00 | 77 | 1016.1 |
| 20260505234904 | 47 | 346 | 2.0 | 3.0 | 0.00 | 0.00 | 0.00 | 76 | 1016.1 |
| 20260505233901 | 47 | 345 | 1.0 | 3.0 | 0.00 | 0.00 | 0.00 | 76 | 1016.1 |
| 20260505232859 | 47 | 343 | 2.0 | 2.0 | 0.00 | 0.00 | 0.00 | 76 | 1016.0 |
| 20260505231857 | 47 | 343 | 2.0 | 2.0 | 0.00 | 0.00 | 0.00 | 76 | 1016.3 |
| 20260505230856 | 47 | 347 | 2.0 | 3.0 | 0.00 | 0.00 | 0.00 | 76 | 1016.1 |
| 20260505225914 | 47 | 349 | 2.0 | 2.0 | 0.00 | 0.00 | 0.00 | 76 | 1016.2 |
| 20260505224852 | 47 | 345 | 2.0 | 2.0 | 0.00 | 0.00 | 0.00 | 76 | 1016.3 |
| 20260505223849 | 47 | 345 | 2.0 | 2.0 | 0.00 | 0.00 | 0.00 | 75 | 1016.4 |
| 20260505222907 | 48 | 348 | 2.0 | 2.0 | 0.00 | 0.00 | 0.00 | 75 | 1016.4 |
| 20260505221905 | 48 | 346 | 2.0 | 2.0 | 0.00 | 0.00 | 0.00 | 75 | 1016.4 |
| 20260505220844 | 48 | 347 | 2.0 | 2.0 | 0.00 | 0.00 | 0.00 | 74 | 1016.2 |
| 20260505215902 | 49 | 346 | 2.0 | 2.0 | 0.00 | 0.00 | 0.00 | 74 | 1016.3 |
| 20260505214839 | 49 | 346 | 2.0 | 3.0 | 0.00 | 0.00 | 0.00 | 73 | 1016.3 |
| 20260505213838 | 49 | 5 | 2.0 | 3.0 | 0.00 | 0.00 | 0.00 | 73 | 1016.3 |
| 20260505212836 | 49 | 2 | 2.0 | 4.0 | 0.00 | 0.00 | 0.00 | 73 | 1016.2 |
| 20260505211835 | 50 | 4 | 2.0 | 4.0 | 0.00 | 0.00 | 0.00 | 73 | 1016.3 |
| 20260505210831 | 50 | 6 | 3.0 | 4.0 | 0.00 | 0.00 | 0.00 | 73 | 1016.3 |
| 20260505205830 | 50 | 4 | 2.0 | 4.0 | 0.00 | 0.00 | 0.00 | 72 | 1016.2 |
| 20260505204827 | 51 | 2 | 2.0 | 4.0 | 0.00 | 0.00 | 0.00 | 72 | 1016.2 |
| 20260505203846 | 51 | 2 | 2.0 | 3.0 | 0.00 | 0.00 | 0.00 | 72 | 1016.1 |
| 20260505202823 | 51 | 4 | 2.0 | 4.0 | 0.00 | 0.00 | 0.00 | 71 | 1016.1 |
| 20260505201822 | 51 | 3 | 2.0 | 4.0 | 0.00 | 0.00 | 0.00 | 70 | 1015.9 |
| 20260505200839 | 51 | 2 | 2.0 | 4.0 | 0.00 | 0.00 | 0.00 | 70 | 1016.0 |
| 20260505195858 | 52 | 5 | 2.0 | 3.0 | 0.00 | 0.00 | 0.00 | 70 | 1015.7 |
| 20260505194816 | 52 | 1 | 2.0 | 4.0 | 0.00 | 0.00 | 0.00 | 70 | 1015.7 |
| 20260505193814 | 52 | 0 | 2.0 | 4.0 | 0.00 | 0.00 | 0.00 | 68 | 1015.6 |
| 20260505192811 | 53 | 4 | 3.0 | 4.0 | 0.00 | 0.00 | 0.00 | 67 | 1015.7 |
| 20260505191810 | 53 | 1 | 2.0 | 4.0 | 0.00 | 0.00 | 0.00 | 67 | 1015.5 |